Cosmos 1707 - Orbit

View from above orbital plane
View from above orbital plane
View from above satellite
View from above satellite

Ground track
Ground track

The orbit data is extracted from the following two-line orbital elements,

1 16326U 85113A   13143.72596200  .00001944  00000-0  13204-3 0  6447
2 16326 082.5189 220.4262 0011080 337.2282 022.8452 15.05802591493137
Epoch (UTC): 23 May 2013 17:25:23
Eccentricity: 0.0011080
inclination: 82.5189°
perigee height: 541 km
apogee height: 557 km
right ascension of ascending node: 220.4262°
argument of perigee: 337.2282°
revolutions per day: 15.05802591
mean anomaly at epoch: 22.8452°
orbit number at epoch: 49313

The dashed part of the orbit path shows where the satellite is in the earth's shadow,  

Developed and maintained by Chris Peat, Heavens-Above GmbH. Please read the updated FAQ before sending e-mail. Imprint. DLR